QPF
0.00 0.00 0.00 0.00 0.00 0.00 0.00 0.00 0.00 0.00 0.00 0.00 0.00 0.00 0.00 0.00 0.00 0.00 0.00 0.00 0.00 0.00 0.00 0.00 0.00 0.00 0.00 0.00 0.01 0.01 0.01 0.01 0.01 0.02 0.02 0.02 0.04 0.05 0.06 0.06 0.07 0.06 0.05
0.01 0.00 0.00 0.00 0.00 0.00 0.00 0.00 0.00 0.00 0.00 0.00 0.00 0.00 0.00 0.00 0.00 0.00 0.00 0.00 0.00 0.00 0.00 0.00 0.01 0.01 0.00 0.01 0.01 0.01 0.01 0.01 0.01 0.02 0.02 0.02 0.02 0.04 0.06 0.06 0.07 0.08 0.07
0.00 0.00 0.00 0.00 0.00 0.00 0.00 0.00 0.00 0.00 0.00 0.00 0.00 0.00 0.00 0.00 0.00 0.00 0.00 0.00 0.00 0.00 0.00 0.00 0.01 0.01 0.01 0.00 0.01 0.01 0.01 0.01 0.01 0.02 0.02 0.02 0.02 0.03 0.04 0.05 0.05 0.06 0.07
0.00 0.00 0.00 0.00 0.00 0.00 0.00 0.00 0.00 0.00 0.00 0.00 0.00 0.00 0.00 0.00 0.00 0.00 0.00 0.00 0.00 0.00 0.00 0.00 0.01 0.00 0.00 0.01 0.01 0.01 0.00 0.00 0.01 0.01 0.01 0.02 0.02 0.02 0.03 0.03 0.04 0.05 0.05
0.00 0.00 0.00 0.00 0.00 0.00 0.00 0.00 0.00 0.00 0.00 0.00 0.00 0.00 0.00 0.00 0.00 0.00 0.00 0.00 0.00 0.00 0.00 0.00 0.00 0.00 0.00 0.01 0.01 0.01 0.00 0.00 0.01 0.02 0.01 0.01 0.01 0.02 0.02 0.02 0.03 0.04 0.04
0.00 0.00 0.00 0.00 0.00 0.00 0.00 0.00 0.00 0.00 0.00 0.00 0.00 0.00 0.00 0.00 0.00 0.00 0.00 0.00 0.00 0.00 0.00 0.00 0.00 0.00 0.00 0.01 0.01 0.01 0.01 0.01 0.01 0.01 0.02 0.01 0.01 0.02 0.02 0.02 0.03 0.03 0.04
0.00 0.00 0.00 0.00 0.00 0.00 0.00 0.00 0.00 0.00 0.00 0.00 0.00 0.00 0.00 0.00 0.00 0.00 0.00 0.00 0.01 0.01 0.01 0.00 0.00 0.00 0.01 0.01 0.01 0.01 0.01 0.02 0.02 0.01 0.01 0.01 0.01 0.01 0.01 0.02 0.02 0.02 0.04
0.00 0.00 0.00 0.00 0.00 0.00 0.00 0.00 0.00 0.00 0.00 0.00 0.00 0.00 0.00 0.00 0.00 0.00 0.00 0.00 0.01 0.01 0.00 0.00 0.01 0.01 0.01 0.01 0.01 0.01 0.01 0.02 0.02 0.02 0.01 0.01 0.01 0.01 0.01 0.01 0.02 0.02 0.04
0.00 0.00 0.00 0.00 0.00 0.00 0.00 0.00 0.00 0.00 0.00 0.00 0.00 0.00 0.00 0.00 0.00 0.00 0.01 0.00 0.01 0.00 0.00 0.00 0.01 0.02 0.01 0.01 0.01 0.01 0.01 0.01 0.01 0.01 0.01 0.01 0.01 0.01 0.02 0.01 0.02 0.02 0.03
0.00 0.00 0.00 0.00 0.00 0.00 0.00 0.00 0.00 0.00 0.00 0.00 0.00 0.00 0.00 0.00 0.00 0.00 0.00 0.00 0.00 0.00 0.00 0.00 0.01 0.01 0.01 0.01 0.01 0.01 0.00 0.01 0.01 0.01 0.01 0.01 0.01 0.01 0.01 0.02 0.02 0.02 0.02
0.00 0.00 0.00 0.00 0.00 0.00 0.00 0.00 0.00 0.00 0.00 0.00 0.00 0.00 0.00 0.00 0.00 0.00 0.00 0.00 0.00 0.00 0.00 0.00 0.00 0.00 0.01 0.00 0.00 0.00 0.00 0.01 0.01 0.02 0.02 0.01 0.01 0.01 0.02 0.02 0.02 0.02 0.02
0.00 0.00 0.00 0.00 0.00 0.00 0.00 0.00 0.00 0.00 0.00 0.00 0.00 0.00 0.00 0.00 0.00 0.00 0.00 0.00 0.00 0.00 0.00 0.00 0.00 0.00 0.00 0.00 0.00 0.00 0.00 0.00 0.01 0.02 0.03 0.02 0.01 0.02 0.02 0.02 0.02 0.02 0.02
0.00 0.00 0.00 0.00 0.00 0.00 0.00 0.00 0.00 0.00 0.00 0.00 0.00 0.00 0.00 0.00 0.00 0.00 0.00 0.00 0.00 0.00 0.00 0.00 0.00 0.00 0.00 0.00 0.00 0.00 0.00 0.01 0.01 0.01 0.02 0.03 0.03 0.03 0.02 0.02 0.03 0.03 0.03
0.00 0.00 0.00 0.00 0.00 0.00 0.00 0.00 0.00 0.00 0.00 0.00 0.00 0.00 0.00 0.00 0.00 0.00 0.00 0.00 0.00 0.00 0.00 0.00 0.00 0.00 0.00 0.00 0.00 0.00 0.01 0.01 0.01 0.01 0.02 0.03 0.03 0.03 0.03 0.02 0.03 0.03 0.04
0.00 0.00 0.00 0.00 0.00 0.00 0.00 0.00 0.00 0.00 0.00 0.00 0.00 0.00 0.00 0.00 0.00 0.00 0.00 0.00 0.00 0.00 0.00 0.00 0.00 0.00 0.00 0.00 0.00 0.00 0.00 0.00 0.00 0.01 0.01 0.03 0.02 0.02 0.02 0.02 0.02 0.02 0.03
0.00 0.00 0.00 0.00 0.00 0.00 0.00 0.00 0.00 0.00 0.00 0.00 0.00 0.00 0.00 0.00 0.00 0.00 0.00 0.00 0.00 0.00 0.00 0.00 0.00 0.00 0.00 0.00 0.00 0.00 0.00 0.00 0.01 0.01 0.01 0.01 0.01 0.01 0.02 0.02 0.02 0.02 0.02
0.00 0.00 0.00 0.00 0.00 0.00 0.00 0.00 0.00 0.00 0.00 0.00 0.00 0.00 0.00 0.00 0.00 0.00 0.00 0.00 0.00 0.00 0.00 0.00 0.00 0.00 0.00 0.00 0.00 0.01 0.01 0.01 0.01 0.01 0.01 0.01 0.01 0.01 0.02 0.02 0.02 0.02 0.03
0.00 0.00 0.00 0.00 0.00 0.00 0.00 0.00 0.00 0.00 0.00 0.00 0.00 0.00 0.00 0.00 0.00 0.00 0.00 0.00 0.00 0.00 0.00 0.00 0.00 0.00 0.00 0.00 0.00 0.00 0.00 0.00 0.00 0.00 0.00 0.01 0.01 0.01 0.01 0.01 0.01 0.01 0.01
0.00 0.00 0.00 0.00 0.00 0.00 0.00 0.00 0.00 0.00 0.00 0.00 0.00 0.00 0.00 0.00 0.00 0.00 0.00 0.00 0.00 0.00 0.00 0.00 0.00 0.00 0.00 0.00 0.00 0.00 0.00 0.00 0.00 0.00 0.00 0.00 0.00 0.00 0.00 0.00 0.01 0.01 0.01
0.00 0.00 0.00 0.00 0.00 0.00 0.00 0.00 0.00 0.00 0.00 0.00 0.00 0.00 0.00 0.00 0.00 0.00 0.00 0.00 0.00 0.00 0.00 0.00 0.00 0.00 0.00 0.00 0.00 0.00 0.00 0.00 0.00 0.00 0.00 0.00 0.00 0.00 0.00 0.00 0.00 0.00 0.00
0.00 0.00 0.00 0.00 0.00 0.00 0.00 0.00 0.00 0.00 0.00 0.00 0.00 0.00 0.00 0.00 0.00 0.00 0.00 0.00 0.00 0.00 0.00 0.00 0.00 0.00 0.00 0.00 0.00 0.00 0.00 0.00 0.00 0.00 0.00 0.00 0.00 0.00 0.00 0.00 0.00 0.00 0.00
0.00 0.00 0.00 0.00 0.00 0.00 0.00 0.00 0.00 0.00 0.00 0.00 0.00 0.00 0.00 0.00 0.00 0.00 0.00 0.00 0.00 0.00 0.00 0.00 0.00 0.00 0.00 0.00 0.00 0.00 0.00 0.00 0.00 0.00 0.00 0.00 0.00 0.00 0.00 0.00 0.00 0.00 0.00
0.00 0.00 0.00 0.00 0.00 0.00 0.00 0.00 0.00 0.00 0.00 0.00 0.00 0.00 0.00 0.00 0.00 0.00 0.00 0.00 0.00 0.00 0.00 0.00 0.00 0.00 0.00 0.00 0.00 0.00 0.00 0.00 0.00 0.00 0.00 0.00 0.00 0.00 0.00 0.00 0.00 0.00 0.00
0.00 0.00 0.00 0.00 0.00 0.00 0.00 0.00 0.00 0.00 0.00 0.00 0.00 0.00 0.00 0.00 0.00 0.00 0.00 0.00 0.00 0.00 0.00 0.00 0.00 0.00 0.00 0.00 0.00 0.00 0.00 0.00 0.00 0.00 0.00 0.00 0.00 0.00 0.00 0.00 0.00 0.00 0.00
0.00 0.00 0.00 0.00 0.00 0.00 0.00 0.00 0.00 0.00 0.00 0.00 0.00 0.00 0.00 0.00 0.00 0.00 0.00 0.00 0.00 0.00 0.00 0.00 0.00 0.00 0.00 0.00 0.00 0.00 0.00 0.00 0.00 0.00 0.00 0.00 0.00 0.00 0.00 0.00 0.00 0.00 0.00
0.00 0.00 0.00 0.00 0.00 0.00 0.00 0.00 0.00 0.00 0.00 0.00 0.00 0.00 0.00 0.00 0.00 0.00 0.00 0.00 0.00 0.00 0.00 0.00 0.00 0.00 0.00 0.00 0.00 0.00 0.00 0.00 0.00 0.00 0.00 0.00 0.00 0.00 0.00 0.00 0.00 0.00 0.00
MSLP
1011.69 1011.73 1011.77 1011.83 1011.91 1012.05 1012.25 1012.52 1012.86 1013.23 1013.62 1013.96 1014.23 1014.41 1014.48 1014.46 1014.38 1014.28 1014.18 1014.12 1014.10 1014.13 1014.17 1014.20 1014.18 1014.10 1013.95 1013.73 1013.47 1013.19 1012.95 1012.75 1012.62 1012.56 1012.55 1012.57 1012.59 1012.61 1012.60 1012.57 1012.52 1012.47 1012.44
1011.49 1011.52 1011.57 1011.62 1011.69 1011.81 1011.99 1012.25 1012.59 1012.99 1013.40 1013.79 1014.12 1014.35 1014.46 1014.47 1014.41 1014.31 1014.22 1014.17 1014.17 1014.22 1014.29 1014.35 1014.37 1014.32 1014.18 1013.96 1013.69 1013.39 1013.12 1012.89 1012.75 1012.67 1012.67 1012.71 1012.76 1012.80 1012.81 1012.78 1012.72 1012.64 1012.56
1011.22 1011.25 1011.30 1011.36 1011.43 1011.54 1011.71 1011.96 1012.30 1012.71 1013.15 1013.58 1013.95 1014.22 1014.38 1014.44 1014.40 1014.33 1014.25 1014.21 1014.22 1014.28 1014.38 1014.47 1014.52 1014.49 1014.37 1014.16 1013.88 1013.58 1013.29 1013.05 1012.89 1012.81 1012.81 1012.86 1012.94 1013.00 1013.03 1013.02 1012.96 1012.86 1012.75
1010.88 1010.92 1010.98 1011.05 1011.13 1011.25 1011.42 1011.66 1012.00 1012.41 1012.87 1013.33 1013.74 1014.06 1014.26 1014.35 1014.35 1014.30 1014.24 1014.21 1014.23 1014.30 1014.41 1014.51 1014.58 1014.58 1014.48 1014.29 1014.03 1013.74 1013.45 1013.21 1013.04 1012.96 1012.97 1013.03 1013.12 1013.21 1013.26 1013.27 1013.22 1013.13 1013.00
1010.50 1010.53 1010.61 1010.71 1010.82 1010.95 1011.12 1011.37 1011.71 1012.12 1012.59 1013.06 1013.49 1013.85 1014.10 1014.23 1014.26 1014.23 1014.18 1014.15 1014.17 1014.24 1014.35 1014.46 1014.55 1014.57 1014.51 1014.36 1014.14 1013.87 1013.60 1013.38 1013.21 1013.13 1013.13 1013.20 1013.29 1013.39 1013.47 1013.50 1013.48 1013.40 1013.29
1010.11 1010.14 1010.24 1010.37 1010.50 1010.65 1010.84 1011.09 1011.42 1011.83 1012.29 1012.77 1013.22 1013.60 1013.88 1014.04 1014.10 1014.09 1014.06 1014.03 1014.04 1014.10 1014.20 1014.32 1014.43 1014.49 1014.47 1014.37 1014.20 1013.98 1013.75 1013.54 1013.39 1013.31 1013.30 1013.36 1013.45 1013.55 1013.64 1013.69 1013.70 1013.66 1013.58
1009.78 1009.80 1009.91 1010.06 1010.21 1010.38 1010.57 1010.81 1011.13 1011.51 1011.96 1012.43 1012.89 1013.29 1013.59 1013.79 1013.88 1013.89 1013.87 1013.84 1013.84 1013.89 1013.99 1014.11 1014.24 1014.33 1014.36 1014.32 1014.22 1014.06 1013.88 1013.70 1013.56 1013.48 1013.46 1013.50 1013.57 1013.67 1013.76 1013.84 1013.88 1013.88 1013.84
1009.58 1009.58 1009.68 1009.82 1009.98 1010.14 1010.31 1010.53 1010.81 1011.17 1011.59 1012.05 1012.50 1012.91 1013.24 1013.46 1013.59 1013.63 1013.62 1013.60 1013.60 1013.65 1013.74 1013.86 1014.00 1014.13 1014.21 1014.23 1014.19 1014.10 1013.97 1013.84 1013.72 1013.63 1013.59 1013.61 1013.66 1013.74 1013.84 1013.93 1014.00 1014.05 1014.07
1009.58 1009.53 1009.60 1009.71 1009.83 1009.95 1010.08 1010.25 1010.48 1010.78 1011.16 1011.59 1012.04 1012.45 1012.80 1013.07 1013.23 1013.31 1013.33 1013.33 1013.34 1013.38 1013.47 1013.61 1013.76 1013.91 1014.04 1014.12 1014.14 1014.10 1014.03 1013.93 1013.83 1013.74 1013.69 1013.69 1013.72 1013.79 1013.88 1013.98 1014.09 1014.18 1014.25
1009.82 1009.71 1009.71 1009.75 1009.80 1009.84 1009.89 1009.98 1010.13 1010.37 1010.69 1011.08 1011.51 1011.93 1012.30 1012.60 1012.80 1012.93 1013.00 1013.03 1013.06 1013.12 1013.22 1013.36 1013.52 1013.70 1013.85 1013.97 1014.04 1014.06 1014.03 1013.96 1013.88 1013.81 1013.76 1013.73 1013.75 1013.81 1013.90 1014.02 1014.15 1014.28 1014.40
1010.34 1010.15 1010.06 1009.99 1009.92 1009.85 1009.79 1009.76 1009.81 1009.96 1010.21 1010.54 1010.93 1011.34 1011.73 1012.07 1012.32 1012.51 1012.62 1012.71 1012.77 1012.86 1012.97 1013.12 1013.30 1013.48 1013.66 1013.80 1013.90 1013.96 1013.96 1013.93 1013.87 1013.81 1013.77 1013.75 1013.77 1013.83 1013.93 1014.07 1014.22 1014.38 1014.53
1011.12 1010.85 1010.63 1010.43 1010.22 1010.00 1009.80 1009.64 1009.57 1009.60 1009.75 1010.02 1010.36 1010.75 1011.13 1011.49 1011.79 1012.03 1012.20 1012.34 1012.45 1012.57 1012.71 1012.87 1013.06 1013.25 1013.43 1013.59 1013.71 1013.79 1013.82 1013.81 1013.79 1013.75 1013.73 1013.74 1013.77 1013.85 1013.96 1014.11 1014.29 1014.47 1014.64
1012.11 1011.75 1011.40 1011.06 1010.69 1010.31 1009.95 1009.65 1009.44 1009.34 1009.39 1009.55 1009.83 1010.16 1010.53 1010.89 1011.21 1011.48 1011.71 1011.90 1012.06 1012.22 1012.39 1012.58 1012.77 1012.97 1013.16 1013.32 1013.45 1013.54 1013.60 1013.62 1013.62 1013.63 1013.64 1013.67 1013.74 1013.84 1013.98 1014.15 1014.34 1014.53 1014.72
1013.23 1012.77 1012.31 1011.82 1011.30 1010.77 1010.26 1009.81 1009.46 1009.23 1009.15 1009.20 1009.37 1009.63 1009.94 1010.26 1010.58 1010.87 1011.12 1011.36 1011.57 1011.78 1011.98 1012.20 1012.41 1012.62 1012.81 1012.98 1013.12 1013.22 1013.29 1013.34 1013.38 1013.42 1013.47 1013.55 1013.65 1013.79 1013.95 1014.13 1014.33 1014.53 1014.72
1014.36 1013.83 1013.26 1012.66 1012.01 1011.35 1010.71 1010.13 1009.64 1009.28 1009.07 1008.98 1009.03 1009.17 1009.38 1009.63 1009.90 1010.17 1010.43 1010.69 1010.94 1011.19 1011.44 1011.69 1011.93 1012.16 1012.37 1012.55 1012.70 1012.81 1012.91 1012.98 1013.05 1013.13 1013.23 1013.34 1013.48 1013.64 1013.82 1014.02 1014.22 1014.41 1014.60
1015.39 1014.81 1014.18 1013.49 1012.75 1012.00 1011.27 1010.58 1009.98 1009.50 1009.14 1008.91 1008.80 1008.79 1008.87 1009.00 1009.18 1009.39 1009.63 1009.88 1010.15 1010.44 1010.73 1011.02 1011.31 1011.57 1011.81 1012.01 1012.18 1012.32 1012.44 1012.54 1012.65 1012.76 1012.89 1013.03 1013.20 1013.38 1013.57 1013.76 1013.96 1014.15 1014.33
1016.23 1015.63 1014.97 1014.24 1013.46 1012.67 1011.88 1011.12 1010.44 1009.84 1009.35 1008.97 1008.69 1008.50 1008.41 1008.39 1008.44 1008.55 1008.73 1008.95 1009.22 1009.53 1009.86 1010.20 1010.53 1010.84 1011.12 1011.37 1011.57 1011.74 1011.89 1012.03 1012.16 1012.30 1012.45 1012.62 1012.80 1012.99 1013.18 1013.36 1013.55 1013.73 1013.90
1016.83 1016.24 1015.57 1014.85 1014.08 1013.29 1012.48 1011.70 1010.96 1010.28 1009.66 1009.12 1008.67 1008.29 1008.01 1007.81 1007.70 1007.69 1007.76 1007.93 1008.17 1008.48 1008.84 1009.22 1009.61 1009.98 1010.31 1010.61 1010.86 1011.08 1011.27 1011.44 1011.60 1011.77 1011.94 1012.12 1012.30 1012.48 1012.66 1012.83 1013.00 1013.17 1013.34
1017.18 1016.61 1015.98 1015.29 1014.56 1013.81 1013.03 1012.25 1011.48 1010.73 1010.01 1009.34 1008.71 1008.15 1007.67 1007.28 1007.00 1006.83 1006.79 1006.87 1007.07 1007.36 1007.72 1008.13 1008.56 1008.99 1009.38 1009.74 1010.06 1010.33 1010.57 1010.78 1010.98 1011.17 1011.36 1011.54 1011.72 1011.90 1012.06 1012.22 1012.38 1012.54 1012.72
1017.31 1016.77 1016.19 1015.56 1014.90 1014.20 1013.47 1012.72 1011.94 1011.15 1010.36 1009.57 1008.80 1008.07 1007.40 1006.83 1006.37 1006.05 1005.87 1005.84 1005.96 1006.20 1006.55 1006.97 1007.43 1007.89 1008.35 1008.77 1009.15 1009.49 1009.79 1010.06 1010.31 1010.53 1010.74 1010.94 1011.12 1011.30 1011.46 1011.61 1011.77 1011.93 1012.12
1017.27 1016.77 1016.24 1015.67 1015.07 1014.44 1013.77 1013.06 1012.29 1011.49 1010.64 1009.77 1008.89 1008.02 1007.20 1006.46 1005.84 1005.36 1005.04 1004.89 1004.91 1005.08 1005.37 1005.77 1006.23 1006.72 1007.21 1007.69 1008.14 1008.55 1008.92 1009.26 1009.57 1009.85 1010.11 1010.34 1010.55 1010.73 1010.91 1011.07 1011.24 1011.43 1011.64
1017.13 1016.66 1016.16 1015.65 1015.11 1014.53 1013.91 1013.24 1012.50 1011.69 1010.83 1009.91 1008.95 1007.99 1007.06 1006.19 1005.43 1004.81 1004.35 1004.06 1003.96 1004.02 1004.24 1004.57 1005.00 1005.48 1005.99 1006.51 1007.02 1007.51 1007.96 1008.39 1008.78 1009.14 1009.46 1009.76 1010.02 1010.25 1010.46 1010.66 1010.86 1011.08 1011.33
1016.93 1016.47 1015.99 1015.50 1014.99 1014.46 1013.87 1013.24 1012.53 1011.74 1010.88 1009.94 1008.96 1007.95 1006.95 1005.99 1005.13 1004.38 1003.79 1003.37 1003.13 1003.07 1003.16 1003.41 1003.76 1004.21 1004.71 1005.25 1005.81 1006.37 1006.91 1007.43 1007.93 1008.39 1008.81 1009.19 1009.54 1009.84 1010.12 1010.39 1010.65 1010.92 1011.22
1016.69 1016.22 1015.74 1015.25 1014.75 1014.22 1013.66 1013.05 1012.36 1011.61 1010.77 1009.86 1008.88 1007.87 1006.84 1005.85 1004.91 1004.08 1003.37 1002.82 1002.44 1002.23 1002.18 1002.30 1002.56 1002.93 1003.40 1003.94 1004.53 1005.15 1005.78 1006.41 1007.01 1007.59 1008.14 1008.63 1009.09 1009.50 1009.88 1010.23 1010.57 1010.91 1011.27
1016.41 1015.91 1015.40 1014.88 1014.36 1013.83 1013.26 1012.66 1012.00 1011.28 1010.49 1009.62 1008.69 1007.72 1006.71 1005.71 1004.75 1003.85 1003.06 1002.39 1001.87 1001.50 1001.31 1001.29 1001.42 1001.70 1002.11 1002.62 1003.22 1003.89 1004.60 1005.32 1006.05 1006.75 1007.42 1008.05 1008.63 1009.17 1009.66 1010.12 1010.56 1010.99 1011.42
1016.07 1015.52 1014.97 1014.41 1013.85 1013.28 1012.70 1012.10 1011.46 1010.78 1010.04 1009.24 1008.38 1007.47 1006.52 1005.56 1004.60 1003.67 1002.81 1002.04 1001.40 1000.89 1000.55 1000.38 1000.39 1000.56 1000.89 1001.36 1001.96 1002.65 1003.42 1004.23 1005.05 1005.87 1006.67 1007.42 1008.13 1008.79 1009.40 1009.98 1010.52 1011.04 1011.55
Thickness
5741 5741 5740 5738 5734 5731 5728 5725 5721 5718 5715 5711 5707 5703 5701 5699 5696 5694 5691 5687 5684 5681 5678 5674 5672 5669 5667 5665 5665 5665 5665 5667 5669 5671 5673 5679 5685 5690 5695 5700 5705 5709 5713
5737 5737 5736 5735 5733 5730 5727 5724 5720 5717 5714 5710 5706 5703 5700 5697 5694 5692 5689 5685 5682 5679 5676 5671 5668 5666 5663 5662 5661 5660 5660 5662 5664 5665 5666 5667 5674 5682 5689 5694 5699 5703 5708
5736 5735 5734 5733 5731 5729 5727 5725 5720 5717 5713 5709 5705 5701 5697 5695 5692 5689 5686 5684 5680 5677 5673 5670 5666 5664 5661 5659 5658 5657 5657 5657 5659 5662 5663 5662 5664 5671 5680 5686 5692 5697 5702
5739 5737 5735 5733 5732 5731 5728 5724 5720 5716 5712 5708 5704 5700 5695 5691 5689 5686 5684 5682 5679 5676 5672 5669 5666 5663 5660 5658 5657 5656 5656 5655 5656 5658 5661 5663 5665 5667 5670 5677 5685 5691 5696
5739 5738 5737 5735 5734 5731 5727 5724 5719 5715 5712 5708 5704 5700 5695 5691 5688 5685 5683 5680 5678 5675 5672 5669 5665 5662 5660 5658 5657 5656 5655 5654 5654 5655 5657 5659 5662 5665 5666 5669 5675 5683 5689
5740 5738 5737 5735 5732 5729 5726 5722 5718 5715 5712 5708 5704 5700 5695 5691 5687 5684 5681 5678 5676 5674 5672 5669 5665 5663 5660 5658 5657 5656 5654 5654 5654 5654 5655 5657 5659 5661 5664 5665 5669 5674 5682
5737 5736 5735 5733 5730 5728 5725 5722 5718 5714 5711 5708 5704 5700 5696 5692 5687 5684 5681 5678 5675 5672 5671 5668 5665 5663 5661 5659 5657 5655 5654 5654 5653 5653 5654 5656 5658 5661 5663 5664 5665 5669 5675
5735 5735 5735 5733 5731 5728 5725 5721 5718 5715 5711 5707 5704 5700 5696 5692 5688 5685 5681 5678 5675 5673 5671 5668 5666 5664 5662 5660 5658 5656 5654 5654 5653 5654 5654 5655 5657 5659 5662 5663 5664 5665 5668
5734 5734 5734 5733 5731 5729 5726 5723 5719 5715 5712 5708 5704 5700 5696 5692 5689 5686 5683 5679 5676 5674 5672 5669 5666 5664 5662 5661 5658 5656 5655 5654 5654 5654 5654 5655 5656 5658 5660 5663 5665 5665 5664
5730 5732 5731 5731 5730 5729 5726 5723 5719 5716 5712 5708 5704 5701 5696 5693 5689 5686 5683 5680 5677 5675 5672 5670 5667 5665 5663 5661 5659 5657 5655 5654 5654 5654 5655 5655 5656 5657 5659 5661 5663 5665 5666
5725 5727 5728 5728 5726 5725 5723 5720 5717 5713 5710 5707 5704 5700 5697 5693 5689 5686 5683 5681 5678 5675 5673 5670 5667 5665 5663 5661 5659 5657 5656 5655 5654 5654 5654 5655 5655 5656 5658 5660 5661 5663 5665
5721 5722 5723 5723 5722 5720 5719 5717 5714 5712 5709 5706 5703 5700 5696 5693 5689 5686 5683 5681 5678 5676 5673 5671 5668 5666 5663 5661 5659 5657 5656 5655 5654 5654 5654 5654 5655 5656 5657 5658 5660 5661 5663
5716 5717 5717 5717 5716 5716 5715 5714 5712 5710 5708 5704 5701 5698 5695 5691 5689 5686 5684 5681 5678 5676 5673 5671 5668 5666 5664 5662 5660 5658 5657 5656 5655 5654 5654 5654 5654 5654 5655 5657 5658 5660 5661
5709 5710 5710 5710 5711 5711 5711 5711 5710 5709 5706 5702 5699 5697 5694 5692 5689 5686 5684 5681 5678 5675 5673 5671 5669 5667 5665 5663 5661 5659 5657 5656 5655 5654 5654 5654 5654 5654 5655 5656 5656 5657 5658
5702 5703 5703 5704 5705 5706 5707 5707 5707 5706 5704 5701 5698 5696 5695 5692 5688 5685 5683 5680 5677 5676 5673 5671 5669 5667 5665 5664 5661 5660 5658 5656 5655 5654 5654 5655 5655 5656 5656 5656 5656 5656 5656
5693 5695 5697 5698 5699 5701 5702 5703 5703 5702 5700 5698 5696 5695 5691 5689 5687 5684 5682 5679 5676 5674 5671 5669 5668 5666 5666 5665 5664 5660 5658 5656 5654 5653 5653 5654 5655 5656 5656 5657 5657 5656 5655
5685 5687 5689 5690 5692 5694 5695 5696 5698 5697 5695 5694 5693 5691 5688 5686 5685 5683 5680 5677 5675 5672 5670 5668 5667 5665 5665 5665 5664 5662 5657 5655 5653 5652 5652 5653 5654 5654 5653 5654 5655 5655 5656
5677 5679 5681 5684 5686 5688 5689 5690 5690 5689 5689 5688 5687 5687 5685 5683 5682 5679 5678 5676 5674 5671 5669 5667 5666 5664 5664 5664 5663 5661 5657 5654 5653 5652 5651 5651 5651 5652 5652 5651 5650 5650 5651
5669 5671 5673 5675 5678 5680 5681 5681 5681 5681 5681 5682 5682 5682 5681 5680 5678 5677 5676 5675 5672 5670 5668 5667 5665 5663 5663 5663 5662 5660 5655 5653 5652 5651 5651 5650 5650 5651 5650 5648 5647 5647 5648
5662 5663 5665 5667 5668 5670 5671 5670 5671 5671 5673 5675 5677 5677 5677 5676 5676 5676 5674 5673 5671 5669 5667 5665 5663 5662 5661 5662 5661 5659 5654 5651 5650 5649 5649 5650 5649 5649 5649 5646 5645 5644 5644
5653 5654 5654 5655 5656 5658 5658 5658 5659 5661 5665 5667 5670 5670 5671 5671 5672 5672 5671 5669 5667 5665 5664 5663 5661 5660 5660 5659 5659 5657 5653 5651 5649 5647 5646 5646 5648 5647 5646 5645 5643 5643 5641
5643 5643 5642 5642 5643 5645 5645 5646 5648 5652 5654 5656 5660 5662 5664 5665 5667 5666 5665 5664 5662 5660 5659 5658 5657 5657 5657 5656 5656 5656 5653 5651 5647 5646 5645 5644 5644 5644 5643 5641 5641 5640 5637
5630 5629 5629 5629 5630 5631 5631 5632 5636 5639 5642 5645 5648 5652 5655 5656 5658 5659 5658 5657 5656 5656 5655 5654 5654 5653 5653 5652 5653 5653 5651 5649 5645 5643 5642 5641 5640 5638 5637 5636 5635 5633 5630
5616 5616 5615 5615 5616 5617 5618 5619 5623 5626 5628 5631 5635 5639 5642 5646 5648 5649 5651 5651 5651 5651 5651 5651 5651 5650 5648 5648 5647 5647 5646 5644 5641 5638 5637 5635 5633 5631 5630 5628 5627 5625 5624
5603 5602 5600 5600 5602 5603 5605 5606 5608 5610 5613 5617 5621 5625 5629 5633 5636 5639 5642 5645 5648 5650 5651 5651 5650 5647 5646 5649 5648 5644 5641 5639 5636 5632 5628 5626 5624 5622 5620 5619 5618 5617 5615
5589 5588 5587 5587 5587 5588 5590 5592 5593 5595 5597 5602 5606 5610 5614 5619 5623 5626 5630 5634 5638 5642 5645 5647 5647 5648 5649 5647 5644 5641 5639 5635 5632 5627 5623 5621 5618 5617 5615 5613 5610 5608 5606